Location: Alpine
(43.1636°N, 111.0180°W)
Time: 04:11:56
(UTC+00:00)

Tiros 1 despin weight - Pass Details

Date: 01 June 2022
Orbit: 591 x 639 km, 48.2° (Epoch: 30 June)

Event Time Altitude Azimuth Distance (km) Brightness Sun altitude
Rises 01:13:02 0° 268° (W) 2,886 ? 16.4°
Reaches altitude 10° 01:15:26 10° 274° (W) 1,973 ? 16.0°
Maximum altitude 01:19:49 48° 350° (N) 794 ? 15.2°
Drops below altitude 10° 01:24:09 10° 65° (ENE) 1,946 ? 14.5°
Sets 01:26:30 0° 71° (ENE) 2,843 ? 14.1°
